When you browse on this site, cookies collect data to enhance your experience and personalize the content and advertising you see.
Visit our Privacy Policy to learn more. By continuing to use the site, you agree to this use of cookies and data.
  • In Spain
  • List of Countries
  • For 7 days
  • Water Temperature
  • Satellite Maps
  • Weather Map
  • Weather Widgets
  • user-avatar
    Login

    Hourly Weather Shushkovo

    Today, 25 June, Tuesday

    Time Temperature Precipitation Wind Pressure Humidity
    00:00 +14°C° 0 mm 3 mps 747 mmHg 76%
    01:00 +13°C° 0 mm 3 mps 748 mmHg 77%
    02:00 +14°C° 0 mm 2 mps 748 mmHg 80%
    03:00 +14°C° 0 mm 2 mps 748 mmHg 80%
    04:00 +15°C° 0 mm 2 mps 749 mmHg 80%
    05:00 +15°C° 0 mm 2 mps 749 mmHg 80%
    06:00 +16°C° 0 mm 2 mps 749 mmHg 75%
    07:00 +17°C° 0 mm 3 mps 749 mmHg 69%
    08:00 +19°C° 0 mm 3 mps 750 mmHg 64%
    09:00 +20°C° 0 mm 3 mps 750 mmHg 61%
    10:00 +21°C° 0 mm 3 mps 750 mmHg 59%
    11:00 +21°C° 0 mm 3 mps 750 mmHg 56%
    12:00 +22°C° 0 mm 3 mps 750 mmHg 55%
    13:00 +22°C° 0 mm 3 mps 750 mmHg 54%
    14:00 +22°C° 0 mm 3 mps 750 mmHg 53%
    15:00 +23°C° 0 mm 2 mps 750 mmHg 57%
    16:00 +23°C° 0 mm 2 mps 750 mmHg 61%
    17:00 +21°C° 0 mm 2 mps 749 mmHg 66%
    18:00 +20°C° 0 mm 2 mps 750 mmHg 68%
    19:00 +18°C° 0 mm 2 mps 750 mmHg 70%
    20:00 +16°C° 0 mm 2 mps 750 mmHg 72%
    21:00 +15°C° 0 mm 1 mps 750 mmHg 74%
    22:00 +14°C° 0 mm 1 mps 749 mmHg 76%
    23:00 +14°C° 0 mm 1 mps 749 mmHg 79%

    Tomorrow, 26 June, Wednesday

    Time Temperature Precipitation Wind Pressure Humidity
    00:00 +13°C° 0 mm 1 mps 749 mmHg 80%
    01:00 +13°C° 0 mm 1 mps 749 mmHg 81%
    02:00 +11°C° 0 mm 0 mps 750 mmHg 82%
    03:00 +13°C° 0 mm 1 mps 749 mmHg 82%
    04:00 +14°C° 0 mm 1 mps 749 mmHg 81%
    05:00 +15°C° 0 mm 1 mps 749 mmHg 81%
    06:00 +16°C° 0 mm 1 mps 749 mmHg 76%
    07:00 +19°C° 0 mm 1 mps 749 mmHg 72%
    08:00 +19°C° 0 mm 2 mps 749 mmHg 67%
    09:00 +20°C° 0 mm 2 mps 748 mmHg 63%
    10:00 +23°C° 0 mm 2 mps 748 mmHg 58%
    11:00 +24°C° 0 mm 3 mps 748 mmHg 54%
    12:00 +24°C° 0 mm 3 mps 747 mmHg 54%
    13:00 +24°C° 0 mm 3 mps 747 mmHg 55%
    14:00 +24°C° 0 mm 3 mps 746 mmHg 55%
    15:00 +24°C° 0 mm 3 mps 746 mmHg 59%
    16:00 +24°C° 0 mm 3 mps 745 mmHg 62%
    17:00 +24°C° 0 mm 3 mps 744 mmHg 66%
    18:00 +21°C° 0 mm 2 mps 744 mmHg 69%
    19:00 +20°C° 0 mm 2 mps 743 mmHg 71%
    20:00 +18°C° 0 mm 2 mps 743 mmHg 74%
    21:00 +17°C° 0 mm 2 mps 742 mmHg 77%
    22:00 +16°C° 0 mm 2 mps 742 mmHg 80%
    23:00 +16°C° 0 mm 3 mps 741 mmHg 83%

    Day after tomorrow, 27 June, Thursday

    Time Temperature Precipitation Wind Pressure Humidity
    00:00 +14°C° 0 mm 3 mps 741 mmHg 85%
    01:00 +14°C° 0 mm 3 mps 740 mmHg 87%
    02:00 +14°C° 0 mm 3 mps 739 mmHg 90%
    03:00 +14°C° 0.6 mm 4 mps 738 mmHg 91%
    04:00 +15°C° 0.6 mm 4 mps 737 mmHg 91%
    05:00 +15°C° 0.6 mm 4 mps 736 mmHg 92%
    06:00 +16°C° 0.2 mm 5 mps 736 mmHg 91%
    07:00 +17°C° 0.2 mm 5 mps 735 mmHg 90%
    08:00 +19°C° 0.2 mm 6 mps 734 mmHg 89%
    09:00 +19°C° 2.5 mm 6 mps 733 mmHg 91%
    10:00 +18°C° 2.5 mm 7 mps 732 mmHg 93%
    11:00 +18°C° 2.5 mm 8 mps 731 mmHg 95%
    12:00 +18°C° 0.7 mm 7 mps 731 mmHg 94%
    13:00 +20°C° 0.7 mm 7 mps 730 mmHg 94%
    14:00 +20°C° 0.7 mm 7 mps 729 mmHg 93%
    15:00 +20°C° 0.3 mm 7 mps 729 mmHg 92%
    16:00 +21°C° 0.3 mm 7 mps 728 mmHg 92%
    17:00 +21°C° 0.3 mm 6 mps 728 mmHg 91%
    18:00 +20°C° 0.2 mm 6 mps 728 mmHg 92%
    19:00 +19°C° 0.2 mm 5 mps 727 mmHg 93%
    20:00 +17°C° 0.2 mm 5 mps 727 mmHg 94%
    21:00 +16°C° 0 mm 5 mps 727 mmHg 94%
    22:00 +14°C° 0 mm 5 mps 727 mmHg 94%
    23:00 +13°C° 0 mm 4 mps 727 mmHg 94%

    28 June, Friday

    Time Temperature Precipitation Wind Pressure Humidity
    00:00 +12°C° 0 mm 4 mps 727 mmHg 94%
    01:00 +12°C° 0 mm 5 mps 727 mmHg 94%
    02:00 +10°C° 0 mm 5 mps 727 mmHg 94%
    03:00 +10°C° 0 mm 5 mps 727 mmHg 93%
    04:00 +12°C° 0 mm 5 mps 727 mmHg 91%
    05:00 +11°C° 0 mm 6 mps 726 mmHg 90%
    06:00 +11°C° 0.1 mm 6 mps 726 mmHg 89%
    07:00 +11°C° 0.1 mm 6 mps 726 mmHg 87%
    08:00 +11°C° 0.1 mm 6 mps 726 mmHg 86%
    09:00 +13°C° 0.3 mm 6 mps 726 mmHg 85%
    10:00 +14°C° 0.3 mm 7 mps 726 mmHg 84%
    11:00 +13°C° 0.3 mm 8 mps 726 mmHg 83%
    12:00 +12°C° 0.3 mm 7 mps 726 mmHg 86%
    13:00 +12°C° 0.3 mm 7 mps 726 mmHg 89%
    14:00 +11°C° 0.3 mm 7 mps 726 mmHg 91%
    15:00 +11°C° 0.3 mm 6 mps 726 mmHg 92%
    16:00 +10°C° 0.3 mm 6 mps 726 mmHg 93%
    17:00 +10°C° 0.3 mm 6 mps 726 mmHg 94%
    18:00 +10°C° 0.3 mm 6 mps 726 mmHg 94%
    19:00 +10°C° 0.3 mm 6 mps 727 mmHg 94%
    20:00 +10°C° 0.3 mm 6 mps 727 mmHg 94%
    21:00 +10°C° 0.3 mm 6 mps 727 mmHg 94%
    22:00 +10°C° 0.3 mm 6 mps 727 mmHg 94%
    23:00 +10°C° 0.3 mm 6 mps 728 mmHg 94%

    29 June, Saturday

    Time Temperature Precipitation Wind Pressure Humidity
    00:00 +10°C° 0 mm 6 mps 728 mmHg 93%
    01:00 +9°C° 0 mm 6 mps 728 mmHg 93%
    02:00 +9°C° 0 mm 5 mps 728 mmHg 92%
    03:00 +8°C° 0 mm 5 mps 728 mmHg 91%
    04:00 +8°C° 0 mm 5 mps 728 mmHg 91%
    05:00 +7°C° 0 mm 6 mps 728 mmHg 90%
    06:00 +8°C° 0 mm 6 mps 729 mmHg 88%
    07:00 +8°C° 0 mm 6 mps 729 mmHg 86%
    08:00 +8°C° 0 mm 6 mps 729 mmHg 84%
    09:00 +8°C° 0.1 mm 7 mps 730 mmHg 84%
    10:00 +6°C° 0.1 mm 7 mps 730 mmHg 85%
    11:00 +6°C° 0.1 mm 7 mps 731 mmHg 86%
    12:00 +6°C° 0.1 mm 7 mps 731 mmHg 87%
    13:00 +6°C° 0.1 mm 7 mps 731 mmHg 88%
    14:00 +5°C° 0.1 mm 7 mps 732 mmHg 88%
    15:00 +5°C° 0.2 mm 6 mps 732 mmHg 90%
    16:00 +5°C° 0.2 mm 6 mps 732 mmHg 91%
    17:00 +5°C° 0.2 mm 6 mps 733 mmHg 92%
    18:00 +6°C° 0.5 mm 5 mps 733 mmHg 93%
    19:00 +6°C° 0.5 mm 5 mps 733 mmHg 94%
    20:00 +7°C° 0.5 mm 5 mps 733 mmHg 96%
    21:00 +7°C° 0.5 mm 5 mps 733 mmHg 95%
    22:00 +7°C° 0.5 mm 5 mps 733 mmHg 95%
    23:00 +7°C° 0.5 mm 4 mps 733 mmHg 95%

    30 June, Sunday

    Time Temperature Precipitation Wind Pressure Humidity
    00:00 +7°C° 0.2 mm 4 mps 733 mmHg 94%
    01:00 +7°C° 0.2 mm 4 mps 733 mmHg 94%
    02:00 +8°C° 0.2 mm 3 mps 734 mmHg 93%
    03:00 +8°C° 0 mm 3 mps 734 mmHg 92%
    04:00 +7°C° 0 mm 4 mps 734 mmHg 91%
    05:00 +7°C° 0 mm 4 mps 734 mmHg 90%
    06:00 +8°C° 0 mm 4 mps 735 mmHg 84%
    07:00 +10°C° 0 mm 4 mps 735 mmHg 78%
    08:00 +12°C° 0 mm 5 mps 735 mmHg 73%
    09:00 +13°C° 0 mm 5 mps 736 mmHg 67%
    10:00 +15°C° 0 mm 5 mps 736 mmHg 61%
    11:00 +16°C° 0 mm 5 mps 736 mmHg 55%
    12:00 +16°C° 0.1 mm 5 mps 737 mmHg 56%
    13:00 +16°C° 0.1 mm 5 mps 737 mmHg 58%
    14:00 +16°C° 0.1 mm 5 mps 737 mmHg 59%
    15:00 +17°C° 0 mm 4 mps 737 mmHg 62%
    16:00 +17°C° 0 mm 4 mps 737 mmHg 65%
    17:00 +17°C° 0 mm 3 mps 738 mmHg 68%
    18:00 +14°C° 0 mm 3 mps 738 mmHg 71%
    19:00 +13°C° 0 mm 2 mps 738 mmHg 75%
    20:00 +12°C° 0 mm 2 mps 738 mmHg 79%
    21:00 +10°C° 0 mm 2 mps 739 mmHg 81%
    22:00 +10°C° 0 mm 2 mps 739 mmHg 83%
    23:00 +9°C° 0 mm 2 mps 739 mmHg 85%
    Show more